Theta_e
352 352 348 345 344 344 345 347 347 352 357 352 349 347 345 346 346 345 345 345 348 347 345 345 346 346 344 348 349 350 350 351 350 347 347 349 351 348 350 349 345 350 350
348 345 345 346 346 351 345 346 349 349 349 349 348 343 337 334 343 340 338 340 344 344 343 341 344 347 346 348 349 347 346 346 350 350 348 347 349 351 350 346 344 349 347
345 345 347 347 346 351 354 355 357 349 348 348 348 345 338 338 339 339 341 341 344 343 342 341 343 345 344 343 347 347 342 344 346 348 346 342 339 347 348 348 343 342 341
347 347 347 346 347 347 351 350 352 349 350 350 347 347 341 337 339 341 343 348 348 347 347 345 347 346 344 346 346 344 339 340 342 341 340 337 342 346 348 345 346 344 341
348 345 341 343 338 338 348 358 352 348 351 348 348 346 345 345 344 345 347 349 349 349 345 345 343 342 342 341 338 339 341 345 344 344 345 346 345 345 346 346 345 345 345
353 356 346 345 345 343 350 352 346 349 348 345 338 334 334 337 338 339 340 341 344 343 343 341 345 341 342 339 339 341 341 340 339 344 345 344 345 343 344 343 343 343 342
354 354 351 350 352 353 352 350 348 344 337 335 337 338 336 335 335 333 333 337 338 338 341 342 343 343 342 343 343 340 341 342 343 344 345 345 346 346 343 343 341 341 343
355 354 353 353 352 350 349 347 336 335 337 335 334 332 332 330 332 331 336 341 342 341 340 339 339 340 338 337 337 340 343 343 342 341 341 340 339 340 341 340 340 340 341
357 354 353 352 352 347 338 336 336 333 334 334 332 331 328 330 331 331 337 342 343 339 338 337 337 337 338 338 339 339 340 342 339 340 337 337 338 338 340 341 343 342 340
358 354 352 349 343 342 338 334 336 337 334 338 330 328 328 328 328 331 333 341 343 342 339 337 337 336 335 334 338 338 342 338 338 339 336 337 337 338 339 340 339 339 339
348 348 348 347 340 336 336 338 339 341 334 331 327 328 331 327 327 327 327 336 341 340 340 340 337 336 335 335 335 334 334 336 340 337 337 335 335 336 336 334 335 334 333
344 347 341 341 345 339 338 338 338 340 337 330 327 337 334 330 330 329 328 328 330 340 340 339 337 335 334 333 333 333 333 340 339 336 337 334 334 334 335 334 333 333 332
347 336 334 338 339 340 340 341 345 341 346 342 337 336 339 340 335 332 331 331 331 336 330 329 331 332 335 336 333 333 336 338 338 336 337 333 333 335 334 333 331 331 331
345 339 338 340 341 345 346 346 345 345 344 343 338 335 335 340 340 340 340 339 337 337 334 340 339 339 339 338 337 336 337 335 335 335 335 333 333 332 332 331 329 330 330
344 345 346 344 346 343 346 347 346 339 340 342 340 337 335 335 332 335 336 336 336 336 340 341 340 338 338 337 337 336 335 336 334 334 334 334 334 334 332 332 330 329 329
345 344 344 344 345 345 346 344 340 338 337 336 333 334 327 327 327 329 334 337 338 338 342 341 340 338 338 337 335 336 336 335 335 334 332 330 333 333 331 331 328 331 330
343 343 344 346 344 344 344 343 343 338 338 337 331 329 327 328 334 336 332 330 335 336 343 342 341 340 339 338 335 334 338 335 335 333 334 333 332 331 330 325 330 329 330
347 346 346 345 343 343 342 342 341 342 342 341 336 334 335 337 337 337 335 334 337 338 339 341 342 340 340 338 335 334 334 334 334 333 334 334 332 331 331 330 328 329 327
348 345 346 346 344 344 342 340 341 342 340 340 340 340 340 339 337 337 335 335 337 337 337 338 340 340 339 338 336 334 332 331 331 330 330 330 330 329 331 330 325 327 327
347 347 346 346 345 342 341 340 342 342 340 339 340 342 341 338 341 343 340 341 338 336 336 338 339 339 339 338 336 336 332 330 330 333 330 331 329 330 330 329 326 324 328
345 346 341 343 342 342 341 341 341 341 340 339 339 340 337 339 340 341 341 340 337 336 337 337 338 339 338 338 335 335 335 329 329 330 329 333 331 331 330 329 327 326 328
342 343 341 341 341 342 341 340 341 341 340 338 337 339 337 338 340 340 342 340 338 339 338 339 337 336 335 335 335 334 336 333 332 330 329 331 332 331 329 327 327 326 327
338 341 341 342 341 341 340 339 340 341 341 340 338 338 340 341 339 340 340 339 339 339 339 339 337 336 335 336 335 334 334 335 335 334 334 331 332 331 330 329 328 327 327
338 337 340 340 342 341 341 341 340 340 340 339 336 336 338 339 339 338 337 338 339 339 339 339 337 334 334 335 335 335 335 334 334 335 332 332 332 330 330 329 328 328 328
340 338 337 338 339 339 339 339 340 338 336 337 337 337 337 338 338 337 337 338 339 339 340 339 337 336 336 335 335 333 327 327 328 330 333 332 334 332 331 330 330 329 328
344 344 341 337 334 333 336 336 336 335 335 337 337 337 338 338 337 337 338 338 338 339 340 339 338 336 336 336 337 329 326 326 326 326 328 332 332 333 332 331 328 327 327
Wind_Speed
11 14 16 16 16 12 11 11 10 8 7 7 7 6 9 11 13 16 17 17 21 20 16 19 19 18 19 15 14 14 15 15 18 17 17 17 20 19 17 17 18 17 18
11 11 11 12 12 11 12 11 11 12 12 10 11 10 17 14 8 15 15 16 14 12 16 17 15 13 19 15 16 17 17 18 17 18 14 15 20 21 20 21 21 19 21
7 9 9 9 10 10 11 11 12 13 11 13 14 17 20 11 8 17 24 23 16 18 18 19 16 16 18 13 14 14 16 17 15 16 16 20 26 21 22 22 24 26 24
7 11 10 6 7 5 10 13 13 7 10 7 13 22 16 18 19 19 21 21 19 16 12 13 16 16 16 16 15 17 19 21 21 23 23 23 26 23 23 20 20 23 27
9 14 19 21 11 21 17 13 10 7 9 9 13 11 9 7 7 10 10 10 9 11 13 9 9 12 15 16 11 14 19 18 17 16 18 19 20 17 18 16 18 17 18
7 11 17 16 19 24 15 15 9 8 6 2 2 3 3 4 7 10 11 10 8 11 8 9 7 7 6 8 12 16 16 19 18 15 16 16 16 17 18 20 21 22 24
8 11 13 13 12 11 11 11 9 7 6 4 3 3 4 6 8 10 12 11 10 10 8 8 7 6 6 6 9 10 11 11 12 12 13 14 16 16 17 20 21 21 21
13 15 16 16 16 16 14 12 11 10 8 6 4 4 5 6 8 11 11 9 8 7 6 5 4 6 9 9 9 7 6 8 10 11 12 14 14 15 15 16 16 19 16
14 16 16 16 16 15 15 15 13 10 7 5 5 5 6 6 6 11 13 11 9 10 9 10 9 10 11 9 7 7 6 8 9 11 12 10 11 9 11 11 11 12 14
14 15 15 16 16 17 16 15 13 10 7 6 6 8 8 7 8 10 12 8 9 9 10 12 12 12 13 13 10 9 8 9 8 7 9 10 10 10 9 7 10 12 13
16 17 17 17 18 18 17 15 12 9 7 8 8 8 9 9 11 12 11 10 7 7 7 8 9 11 12 12 12 12 11 9 8 7 9 10 11 10 9 10 9 10 10
17 18 19 18 13 16 14 11 9 7 6 7 8 7 8 11 12 14 14 13 11 7 7 6 9 11 12 14 16 15 12 10 7 8 8 10 10 10 10 12 12 10 13
17 19 19 16 15 13 10 7 6 5 3 4 4 5 5 5 9 12 13 13 15 11 11 11 11 11 14 14 15 15 14 8 7 8 8 10 11 11 12 12 14 14 9
17 18 17 14 12 10 6 5 3 2 3 3 5 5 4 5 5 6 7 10 13 12 14 13 15 15 15 13 11 11 9 10 8 7 8 9 10 11 11 13 12 13 11
16 14 13 10 9 8 7 5 3 3 4 4 5 5 4 2 4 7 7 7 9 11 12 9 10 10 10 11 10 9 9 9 8 7 7 8 8 8 8 11 12 14 17
15 13 12 9 7 6 3 2 2 2 4 3 3 6 4 1 4 6 6 7 9 10 8 9 9 9 10 11 11 9 6 8 7 7 8 9 8 9 9 10 10 11 12
13 13 11 9 7 7 5 5 2 2 3 3 2 3 2 2 5 8 8 7 8 10 8 6 6 8 8 10 11 10 5 5 6 4 4 6 5 5 7 8 7 7 8
12 14 11 8 8 6 6 5 2 0 1 1 3 4 2 2 5 7 8 7 7 9 9 10 6 6 7 9 10 8 6 5 4 3 2 3 3 2 3 6 7 8 7
12 12 12 9 8 8 6 5 3 2 0 2 1 1 2 3 4 6 7 8 7 8 8 7 7 6 6 7 8 7 9 8 4 2 2 2 1 2 1 3 4 5 7
10 15 14 11 9 8 8 6 4 3 2 1 2 2 3 4 5 5 6 4 6 6 7 7 6 6 5 5 8 5 6 8 5 2 2 1 2 2 2 2 1 3 2
9 8 12 11 11 10 10 8 6 3 4 4 3 3 4 5 5 7 6 5 5 5 6 7 7 6 7 5 6 7 3 7 6 3 3 1 3 1 1 2 1 2 3
10 10 8 9 10 10 10 9 7 5 3 3 4 7 8 9 7 8 6 5 4 4 5 5 6 5 5 3 4 4 4 3 2 3 2 2 2 1 2 3 3 2 3
10 11 10 9 9 9 8 10 9 8 7 7 7 8 8 6 6 6 7 6 6 5 6 5 6 5 4 3 4 3 3 4 4 3 3 3 4 3 3 4 5 8 4
9 11 11 10 9 8 7 7 8 9 9 8 8 7 8 7 7 7 6 7 7 7 7 6 4 3 4 2 4 3 5 3 3 3 3 5 5 6 5 4 4 5 5
6 8 10 11 11 11 10 8 7 6 6 6 7 7 7 7 7 7 7 8 9 9 9 7 5 5 4 3 3 4 6 6 2 6 3 5 6 7 8 7 6 6 8
7 5 4 6 10 12 12 11 10 8 9 8 8 8 8 8 9 9 9 10 12 12 11 10 9 6 6 4 3 6 8 7 4 2 2 3 5 7 8 7 8 8 8
Wind_Direction
230 227 233 238 239 243 247 254 252 240 236 247 251 267 280 294 289 289 292 281 274 282 280 281 276 271 270 266 268 258 255 255 262 269 271 277 276 279 270 266 267 266 265
245 235 229 224 226 226 242 246 238 236 239 247 260 294 306 326 269 296 307 289 287 281 292 294 288 277 273 269 261 261 260 256 258 269 273 282 273 277 268 263 265 259 259
242 212 202 212 221 220 220 215 218 243 252 254 262 300 306 322 294 297 285 296 283 290 284 286 287 275 264 257 255 263 259 265 260 266 279 295 295 276 276 268 269 267 264
221 194 191 228 219 258 231 225 226 234 248 270 270 287 292 284 290 292 287 293 287 284 287 288 290 270 259 261 266 265 275 272 263 262 286 289 284 282 277 284 273 271 275
210 198 193 212 245 271 257 214 206 217 240 280 280 293 301 310 308 310 302 286 294 293 307 318 306 278 251 250 258 278 278 276 273 284 284 286 285 285 275 275 276 269 266
175 178 196 205 224 233 230 195 228 224 253 262 347 339 340 340 347 341 339 336 305 309 319 330 331 319 293 264 277 286 282 280 280 279 280 274 281 282 283 284 287 288 289
149 157 169 180 185 176 179 171 171 162 136 122 104 73 27 5 346 339 328 318 317 316 325 337 351 318 303 292 296 299 300 296 286 281 282 289 289 292 292 293 298 293 283
133 139 144 148 148 144 144 148 139 135 124 111 94 55 25 21 27 15 19 15 21 12 3 336 356 321 316 308 301 299 301 299 304 308 304 299 300 300 295 297 301 302 292
130 131 133 136 135 138 135 129 123 118 107 100 82 69 65 54 44 36 53 39 49 46 42 45 43 29 31 30 17 353 355 333 345 349 344 335 324 320 315 307 298 297 299
127 128 130 130 131 130 130 124 120 108 103 103 92 89 76 61 50 38 49 56 46 40 35 51 50 42 38 34 32 14 11 359 9 359 338 345 340 337 335 315 310 306 306
129 128 126 129 133 133 129 126 114 111 105 109 105 93 67 59 56 48 48 62 71 54 49 54 30 33 32 29 26 21 17 35 2 354 5 8 16 29 30 24 12 11 3
133 130 130 126 126 133 132 129 121 104 94 115 115 87 65 70 60 54 51 51 52 50 46 23 16 22 23 25 22 15 24 35 16 14 27 41 32 26 24 25 23 13 11
138 137 137 138 140 133 124 118 127 128 132 137 130 116 84 76 58 54 51 50 47 47 40 35 31 32 34 13 22 34 25 35 35 34 22 17 17 22 26 37 26 22 37
146 142 143 144 145 141 131 130 124 112 157 159 168 154 117 88 68 56 34 30 34 31 36 34 26 26 18 21 29 20 27 34 34 32 20 18 28 24 35 45 41 46 53
156 153 152 157 151 167 162 159 132 92 146 167 174 178 165 87 34 35 35 33 28 26 42 26 31 29 21 20 13 21 22 13 24 35 35 25 28 31 46 65 45 49 54
165 164 165 170 169 167 181 176 142 68 55 73 166 168 168 262 350 357 356 1 2 8 26 10 18 23 18 15 13 358 19 7 8 34 30 52 37 44 50 50 58 57 53
168 175 180 178 195 191 189 173 171 24 32 46 67 169 190 354 359 354 346 334 341 351 349 356 5 9 10 15 13 6 350 344 9 39 42 43 54 54 46 56 49 62 62
179 187 180 195 194 193 186 178 187 185 353 331 100 109 103 56 15 7 5 358 350 338 344 332 344 357 9 9 10 5 1 342 352 10 20 38 30 74 67 41 40 54 90
185 192 183 197 201 202 199 197 222 234 357 165 181 313 293 297 324 344 349 2 354 351 347 342 334 339 353 354 356 350 16 9 357 325 322 331 354 35 352 66 19 136 122
188 191 192 206 219 217 212 207 199 204 209 168 211 230 290 301 308 309 321 327 352 354 359 357 345 338 318 351 356 340 11 11 3 350 343 311 357 96 235 115 67 146 94
184 198 191 211 217 215 206 209 215 227 233 249 246 249 252 282 297 302 281 306 328 343 352 359 352 352 342 353 357 344 336 7 13 3 354 292 223 217 221 168 169 185 153
194 197 197 196 203 206 208 213 214 220 242 261 249 259 284 289 293 298 270 291 300 316 327 342 353 340 326 315 354 4 318 324 328 5 317 282 265 246 204 206 211 221 193
189 192 193 193 189 204 215 216 218 229 244 260 268 263 273 283 289 288 275 269 271 286 301 323 327 338 326 322 326 333 337 309 294 292 280 222 222 215 227 213 220 189 196
191 196 202 205 209 209 215 215 227 240 238 261 272 257 260 265 277 286 270 260 268 279 283 294 309 303 309 351 300 333 322 297 287 269 246 253 229 233 205 220 206 208 217
178 188 204 213 222 224 225 222 226 233 244 261 260 264 257 257 272 275 278 275 270 269 271 271 278 274 268 294 262 276 293 320 255 212 259 235 229 215 213 214 201 201 189
184 184 188 213 226 224 224 226 228 241 249 254 264 261 258 262 264 270 277 280 278 277 264 260 259 248 247 276 269 310 330 336 326 278 168 231 231 220 214 217 216 201 196